This is the latest recevied weather packets stored in our database for station/object PA2JOK. If no packets are shown the sender has not sent any weather packets the latest 1 day(s).
| Time | Temp. | Humidity | Pressure | Rain* | Wind** | Luminosity | Snow |
|---|---|---|---|---|---|---|---|
| 1778100483 | 11.11° C | 63% | 1012.1 hPa | 0 mm | - | - | - |
| 1778098683 | 11.11° C | 62% | 1011.7 hPa | 0 mm | - | - | - |
| 1778096883 | 11.67° C | 59% | 1011.6 hPa | 0 mm | - | - | - |
| 1778094183 | 11.11° C | 57% | 1011.3 hPa | 0 mm | - | - | - |
| 1778090584 | 11.11° C | 57% | 1010.6 hPa | 0 mm | - | - | - |
| 1778086984 | 11.67° C | 56% | 1010 hPa | 0 mm | - | - | - |
| 1778085183 | 11.11° C | 55% | 1010.1 hPa | 0 mm | - | - | - |
| 1778084283 | 11.67° C | 56% | 1010.2 hPa | 0 mm | - | - | - |
| 1778082483 | 11.67° C | 53% | 1010.1 hPa | 0 mm | - | - | - |
| 1778077983 | 11.11° C | 56% | 1010.1 hPa | 0 mm | - | - | - |
| 1778076183 | 11.67° C | 53% | 1009.9 hPa | 0 mm | - | - | - |
| 1778074383 | 11.67° C | 51% | 1009.9 hPa | 0 mm | - | - | - |
| 1778068083 | 13.33° C | 59% | 1009.1 hPa | 0 mm | - | - | - |
| 1778062683 | 12.78° C | 49% | 1009 hPa | 0 mm | - | - | - |
| 1778056383 | 11.67° C | 61% | 1008.5 hPa | 0 mm | - | - | - |
| 1778052783 | 11.67° C | 72% | 1008.2 hPa | 0 mm | - | - | - |
| 1778047383 | 10° C | 80% | 1007.9 hPa | 0 mm | - | - | - |
| 1778046483 | 10° C | 80% | 1007.9 hPa | 0 mm | - | - | - |
| 1778045583 | 10° C | 80% | 1008 hPa | 0 mm | - | - | - |
| 1778044683 | 9.44° C | 79% | 1007.9 hPa | 0 mm | - | - | - |
| 1778043783 | 9.44° C | 78% | 1008.1 hPa | 0 mm | - | - | - |
| 1778041083 | 8.89° C | 78% | 1008 hPa | 0 mm | - | - | - |
| 1778039283 | 8.89° C | 78% | 1008.1 hPa | 0 mm | - | - | - |
| 1778038383 | 8.89° C | 78% | 1008.3 hPa | 0 mm | - | - | - |
| 1778037483 | 8.89° C | 77% | 1008.4 hPa | 0 mm | - | - | - |
* Rain latest hour (hover to see other rain measurements)
** Current wind speed in m/s (hover to see current wind gust speed)